User: anonymous   Login
Location: Bocchiglicro
(39.4167°N, 16.7500°E)
Time: 17:50:23
(UTC+00:00)
Language:

USA 32 - Orbit

View from above orbital plane
View from above orbital plane
View from above satellite
View from above satellite

Ground track
Ground track

The orbit data is extracted from the following two-line orbital elements,

1 19460U 88078A   20226.81950629 0.00000030  00000-0  10869-4 0    07
2 19460  84.9854 272.2936 0005164  79.7274 280.2725 14.33500362    06
Epoch (UTC): 13 August 2020 19:40:05
Eccentricity: 0.0005164
inclination: 84.9854°
perigee height: 776 km
apogee height: 784 km
right ascension of ascending node: 272.2936°
argument of perigee: 79.7274°
revolutions per day: 14.33500362
mean anomaly at epoch: 280.2725°
orbit number at epoch: 0

The dashed part of the orbit path shows where the satellite is in the earth's shadow,  

DLR